Time,TemperatureF,DewpointF,PressureIn,WindDirection,WindDirectionDegrees,WindSpeedMPH,WindSpeedGustMPH,Humidity,HourlyPrecipIn,Conditions,Clouds,dailyrainin,SoftwareType,DateUTC
2013-07-17 00:02:00,70.0,48.8,29.95,SW,225,0.4,1.8,47,0.00,,,0.00,WUHU216HW,2013-07-17 07:02:00,
2013-07-17 00:07:00,69.7,48.4,29.95,ESE,113,1.3,3.4,47,0.00,,,0.00,WUHU216HW,2013-07-17 07:07:00,
2013-07-17 00:12:00,69.5,48.3,29.95,ESE,113,1.6,3.4,47,0.00,,,0.00,WUHU216HW,2013-07-17 07:12:00,
2013-07-17 00:17:00,69.5,48.3,29.95,South,180,0.0,1.8,47,0.00,,,0.00,WUHU216HW,2013-07-17 07:17:00,
2013-07-17 00:22:00,69.3,48.2,29.95,East,90,1.8,1.8,47,0.00,,,0.00,WUHU216HW,2013-07-17 07:22:00,
2013-07-17 00:27:00,69.5,47.7,29.95,SE,135,1.1,2.2,46,0.00,,,0.00,WUHU216HW,2013-07-17 07:27:00,
2013-07-17 00:32:00,69.5,47.1,29.96,SE,135,0.9,2.2,45,0.00,,,0.00,WUHU216HW,2013-07-17 07:32:00,
2013-07-17 00:37:00,69.1,46.8,29.96,NE,45,1.8,2.2,45,0.00,,,0.00,WUHU216HW,2013-07-17 07:37:00,
2013-07-17 00:42:00,68.9,46.6,29.95,NE,45,1.1,2.2,45,0.00,,,0.00,WUHU216HW,2013-07-17 07:42:00,
2013-07-17 00:47:00,68.8,45.9,29.96,NE,45,0.7,2.2,44,0.00,,,0.00,WUHU216HW,2013-07-17 07:47:00,
2013-07-17 00:52:00,68.2,45.4,29.96,NE,45,1.8,2.0,44,0.00,,,0.00,WUHU216HW,2013-07-17 07:52:00,
2013-07-17 00:57:00,68.0,45.2,29.96,NE,45,0.4,2.0,44,0.00,,,0.00,WUHU216HW,2013-07-17 07:57:00,
2013-07-17 01:02:00,68.0,45.2,29.96,NE,45,0.0,1.8,44,0.00,,,0.00,WUHU216HW,2013-07-17 08:02:00,
2013-07-17 01:06:00,67.7,44.9,29.96,NE,45,0.4,1.6,44,0.00,,,0.00,WUHU216HW,2013-07-17 08:06:00,
2013-07-17 01:11:00,67.3,44.6,29.96,NE,45,1.1,1.6,44,0.00,,,0.00,WUHU216HW,2013-07-17 08:11:00,
2013-07-17 01:16:00,66.8,44.1,29.96,ENE,68,1.1,1.6,44,0.00,,,0.00,WUHU216HW,2013-07-17 08:16:00,
2013-07-17 01:21:00,66.2,44.8,29.96,ENE,68,1.1,1.8,46,0.00,,,0.00,WUHU216HW,2013-07-17 08:21:00,
2013-07-17 01:26:00,65.9,43.8,29.96,ENE,68,0.7,1.8,45,0.00,,,0.00,WUHU216HW,2013-07-17 08:26:00,
2013-07-17 01:31:00,65.5,44.1,29.97,ENE,68,0.9,1.8,46,0.00,,,0.00,WUHU216HW,2013-07-17 08:31:00,
2013-07-17 01:36:00,65.7,43.7,29.96,South,180,1.8,2.5,45,0.00,,,0.00,WUHU216HW,2013-07-17 08:36:00,
2013-07-17 01:41:00,65.9,43.8,29.96,SSE,158,1.3,2.5,45,0.00,,,0.00,WUHU216HW,2013-07-17 08:41:00,
2013-07-17 01:46:00,65.9,43.3,29.97,SSE,158,0.0,2.5,44,0.00,,,0.00,WUHU216HW,2013-07-17 08:46:00,
2013-07-17 01:51:00,65.2,43.7,29.97,SSE,158,0.9,1.8,46,0.00,,,0.00,WUHU216HW,2013-07-17 08:51:00,
2013-07-17 01:56:00,64.6,43.2,29.97,SSE,158,0.4,1.8,46,0.00,,,0.00,WUHU216HW,2013-07-17 08:56:00,
2013-07-17 02:01:00,64.3,42.9,29.97,SSE,158,1.1,1.8,46,0.00,,,0.00,WUHU216HW,2013-07-17 09:01:00,
2013-07-17 02:06:00,64.1,43.9,29.97,SSE,158,1.1,1.8,48,0.00,,,0.00,WUHU216HW,2013-07-17 09:06:00,
2013-07-17 02:11:00,63.9,43.1,29.97,SSE,158,0.4,2.2,47,0.00,,,0.00,WUHU216HW,2013-07-17 09:11:00,
2013-07-17 02:16:00,63.5,44.6,29.97,ESE,113,1.8,2.7,50,0.00,,,0.00,WUHU216HW,2013-07-17 09:16:00,
2013-07-17 02:21:00,63.7,44.1,29.97,East,90,1.1,2.7,49,0.00,,,0.00,WUHU216HW,2013-07-17 09:21:00,
2013-07-17 02:26:00,63.7,44.1,29.97,ESE,113,1.3,2.7,49,0.00,,,0.00,WUHU216HW,2013-07-17 09:26:00,
2013-07-17 02:31:00,63.9,44.9,29.97,ESE,113,3.6,3.6,50,0.00,,,0.00,WUHU216HW,2013-07-17 09:31:00,
2013-07-17 02:36:00,63.9,44.3,29.97,ESE,113,1.6,4.7,49,0.00,,,0.00,WUHU216HW,2013-07-17 09:36:00,
2013-07-17 02:41:00,63.7,44.1,29.98,East,90,1.8,4.7,49,0.00,,,0.00,WUHU216HW,2013-07-17 09:41:00,
2013-07-17 02:46:00,63.0,44.1,29.97,ESE,113,3.8,3.8,50,0.00,,,0.00,WUHU216HW,2013-07-17 09:46:00,
2013-07-17 02:51:00,63.2,43.7,29.98,SE,135,1.1,3.8,49,0.00,,,0.00,WUHU216HW,2013-07-17 09:51:00,
2013-07-17 02:56:00,63.0,43.5,29.98,ESE,113,1.3,3.8,49,0.00,,,0.00,WUHU216HW,2013-07-17 09:56:00,
2013-07-17 03:01:00,62.6,43.2,29.98,East,90,1.6,3.4,49,0.00,,,0.00,WUHU216HW,2013-07-17 10:01:00,
2013-07-17 03:06:00,62.5,43.6,29.98,ESE,113,1.6,3.4,50,0.00,,,0.00,WUHU216HW,2013-07-17 10:06:00,
2013-07-17 03:11:00,62.1,43.3,29.98,ESE,113,3.8,4.0,50,0.00,,,0.00,WUHU216HW,2013-07-17 10:11:00,
2013-07-17 03:16:00,61.7,42.9,29.98,ESE,113,1.8,4.0,50,0.00,,,0.00,WUHU216HW,2013-07-17 10:16:00,
2013-07-17 03:21:00,61.6,42.8,29.98,ESE,113,2.7,4.0,50,0.00,,,0.00,WUHU216HW,2013-07-17 10:21:00,
2013-07-17 03:26:00,61.2,42.9,29.98,ESE,113,2.0,4.0,51,0.00,,,0.00,WUHU216HW,2013-07-17 10:26:00,
2013-07-17 03:31:00,60.8,43.1,29.99,East,90,1.3,2.7,52,0.00,,,0.00,WUHU216HW,2013-07-17 10:31:00,
2013-07-17 03:36:00,60.5,42.8,29.99,East,90,1.6,2.5,52,0.00,,,0.00,WUHU216HW,2013-07-17 10:36:00,
2013-07-17 03:41:00,60.1,42.9,29.99,East,90,1.6,2.5,53,0.00,,,0.00,WUHU216HW,2013-07-17 10:41:00,
2013-07-17 03:46:00,59.6,42.4,29.99,East,90,3.4,3.4,53,0.00,,,0.00,WUHU216HW,2013-07-17 10:46:00,
2013-07-17 03:51:00,59.2,42.0,29.99,East,90,0.4,3.4,53,0.00,,,0.00,WUHU216HW,2013-07-17 10:51:00,
2013-07-17 03:56:00,59.0,42.4,29.99,ESE,113,1.8,3.8,54,0.00,,,0.00,WUHU216HW,2013-07-17 10:56:00,
2013-07-17 04:01:00,58.7,42.5,29.99,ESE,113,1.1,3.8,55,0.00,,,0.00,WUHU216HW,2013-07-17 11:01:00,
2013-07-17 04:06:00,58.7,42.0,30.00,East,90,0.7,3.4,54,0.00,,,0.00,WUHU216HW,2013-07-17 11:06:00,
2013-07-17 04:11:00,58.3,41.8,29.99,ESE,113,3.8,4.3,54,0.00,,,0.00,WUHU216HW,2013-07-17 11:11:00,
2013-07-17 04:16:00,58.5,42.4,30.00,ESE,113,0.9,4.3,55,0.00,,,0.00,WUHU216HW,2013-07-17 11:16:00,
2013-07-17 04:21:00,58.7,42.5,29.99,ESE,113,3.4,4.0,55,0.00,,,0.00,WUHU216HW,2013-07-17 11:21:00,
2013-07-17 04:26:00,58.7,42.0,30.00,SE,135,1.1,4.0,54,0.00,,,0.00,WUHU216HW,2013-07-17 11:26:00,
2013-07-17 04:31:00,58.3,42.2,30.00,ESE,113,1.8,4.0,55,0.00,,,0.00,WUHU216HW,2013-07-17 11:31:00,
2013-07-17 04:36:00,58.0,42.3,30.00,NNE,23,2.9,2.9,56,0.00,,,0.00,WUHU216HW,2013-07-17 11:36:00,
2013-07-17 04:41:00,58.0,41.9,30.00,South,180,0.2,2.9,55,0.00,,,0.00,WUHU216HW,2013-07-17 11:41:00,
2013-07-17 04:46:00,58.0,41.9,30.01,South,180,1.3,2.9,55,0.00,,,0.00,WUHU216HW,2013-07-17 11:46:00,
2013-07-17 04:51:00,57.2,41.2,30.00,East,90,1.6,3.4,55,0.00,,,0.00,WUHU216HW,2013-07-17 11:51:00,
2013-07-17 04:56:00,56.7,41.1,30.01,SSW,203,1.8,4.0,56,0.00,,,0.00,WUHU216HW,2013-07-17 11:56:00,
2013-07-17 05:01:00,56.7,42.1,30.01,ESE,113,3.1,4.9,58,0.00,,,0.00,WUHU216HW,2013-07-17 12:01:00,
2013-07-17 05:06:00,57.2,41.7,30.01,SE,135,0.4,4.9,56,0.00,,,0.00,WUHU216HW,2013-07-17 12:06:00,
2013-07-17 05:11:00,57.1,41.5,30.01,ESE,113,0.2,4.5,56,0.00,,,0.00,WUHU216HW,2013-07-17 12:11:00,
2013-07-17 05:16:00,56.7,41.6,30.01,SSE,158,2.9,2.9,57,0.00,,,0.00,WUHU216HW,2013-07-17 12:16:00,
2013-07-17 05:21:00,56.3,40.8,30.01,SSW,203,0.4,2.9,56,0.00,,,0.00,WUHU216HW,2013-07-17 12:21:00,
2013-07-17 05:26:00,56.2,40.6,30.01,SSW,203,0.9,2.9,56,0.00,,,0.00,WUHU216HW,2013-07-17 12:26:00,
2013-07-17 05:31:00,56.2,40.1,30.01,SSW,203,0.9,1.6,55,0.00,,,0.00,WUHU216HW,2013-07-17 12:31:00,
2013-07-17 05:36:00,55.8,40.2,30.01,SSW,203,0.0,1.1,56,0.00,,,0.00,WUHU216HW,2013-07-17 12:36:00,
2013-07-17 05:41:00,55.6,40.5,30.02,SSW,203,0.0,0.7,57,0.00,,,0.00,WUHU216HW,2013-07-17 12:41:00,
2013-07-17 05:46:00,55.4,40.9,30.02,SSE,158,0.2,2.2,58,0.00,,,0.00,WUHU216HW,2013-07-17 12:46:00,
2013-07-17 05:51:00,55.1,40.5,30.02,South,180,0.9,2.5,58,0.00,,,0.00,WUHU216HW,2013-07-17 12:51:00,
2013-07-17 05:56:00,54.7,40.7,30.02,SSW,203,0.0,2.5,59,0.00,,,0.00,WUHU216HW,2013-07-17 12:56:00,
2013-07-17 06:01:00,54.4,40.3,30.02,SSW,203,0.0,2.2,59,0.00,,,0.00,WUHU216HW,2013-07-17 13:01:00,
2013-07-17 06:06:00,54.4,39.9,30.02,SSW,203,0.0,0.7,58,0.00,,,0.00,WUHU216HW,2013-07-17 13:06:00,
2013-07-17 06:11:00,54.4,40.3,30.02,South,180,0.4,2.2,59,0.00,,,0.00,WUHU216HW,2013-07-17 13:11:00,
2013-07-17 06:16:00,54.4,41.2,30.02,South,180,0.9,4.0,61,0.00,,,0.00,WUHU216HW,2013-07-17 13:16:00,
2013-07-17 06:21:00,54.4,42.0,30.03,South,180,2.5,4.0,63,0.00,,,0.00,WUHU216HW,2013-07-17 13:21:00,
2013-07-17 06:26:00,54.7,42.0,30.03,SSE,158,2.9,3.1,62,0.00,,,0.00,WUHU216HW,2013-07-17 13:26:00,
2013-07-17 06:31:00,55.1,42.3,30.03,South,180,2.0,4.5,62,0.00,,,0.00,WUHU216HW,2013-07-17 13:31:00,
2013-07-17 06:36:00,56.0,42.3,30.03,SE,135,3.4,4.7,60,0.00,,,0.00,WUHU216HW,2013-07-17 13:36:00,
2013-07-17 06:41:00,57.1,42.9,30.03,South,180,2.7,4.7,59,0.00,,,0.00,WUHU216HW,2013-07-17 13:41:00,
2013-07-17 06:51:00,58.7,43.0,30.03,South,180,2.7,4.7,56,0.00,,,0.00,WUHU216HW,2013-07-17 13:51:00,
2013-07-17 06:56:00,59.2,42.6,30.03,South,180,1.8,4.7,54,0.00,,,0.00,WUHU216HW,2013-07-17 13:56:00,
2013-07-17 07:01:00,59.2,42.6,30.03,South,180,1.1,3.8,54,0.00,,,0.00,WUHU216HW,2013-07-17 14:01:00,
2013-07-17 07:06:00,59.6,42.8,30.04,South,180,0.0,2.5,54,0.00,,,0.00,WUHU216HW,2013-07-17 14:06:00,
2013-07-17 07:11:00,59.9,43.2,30.04,South,180,1.6,1.6,54,0.00,,,0.00,WUHU216HW,2013-07-17 14:11:00,
2013-07-17 07:16:00,60.7,43.4,30.04,South,180,0.9,1.8,53,0.00,,,0.00,WUHU216HW,2013-07-17 14:16:00,
2013-07-17 07:21:00,61.9,43.6,30.04,South,180,1.8,1.8,51,0.00,,,0.00,WUHU216HW,2013-07-17 14:21:00,
2013-07-17 07:26:00,63.4,43.8,30.04,South,180,2.9,2.9,49,0.00,,,0.00,WUHU216HW,2013-07-17 14:26:00,
2013-07-17 07:31:00,64.8,44.0,30.05,SSE,158,3.4,3.6,47,0.00,,,0.00,WUHU216HW,2013-07-17 14:31:00,
2013-07-17 07:36:00,66.6,44.6,30.04,SSE,158,1.3,3.6,45,0.00,,,0.00,WUHU216HW,2013-07-17 14:36:00,
2013-07-17 07:41:00,67.7,44.3,30.05,South,180,2.7,3.6,43,0.00,,,0.00,WUHU216HW,2013-07-17 14:41:00,
2013-07-17 07:46:00,68.6,44.6,30.05,SE,135,3.1,4.3,42,0.00,,,0.00,WUHU216HW,2013-07-17 14:46:00,
2013-07-17 07:51:00,70.9,45.5,30.05,SSE,158,2.9,4.3,40,0.00,,,0.00,WUHU216HW,2013-07-17 14:51:00,
2013-07-17 07:56:00,72.9,45.7,30.05,SSE,158,2.5,4.5,38,0.00,,,0.00,WUHU216HW,2013-07-17 14:56:00,
2013-07-17 08:01:00,73.6,45.6,30.05,South,180,2.5,7.4,37,0.00,,,0.00,WUHU216HW,2013-07-17 15:01:00,
2013-07-17 08:06:00,74.2,44.6,30.05,ESE,113,4.9,7.4,35,0.00,,,0.00,WUHU216HW,2013-07-17 15:06:00,
2013-07-17 08:11:00,75.1,44.7,30.05,ESE,113,6.3,8.5,34,0.00,,,0.00,WUHU216HW,2013-07-17 15:11:00,
2013-07-17 08:16:00,75.1,44.7,30.05,SSE,158,2.7,8.5,34,0.00,,,0.00,WUHU216HW,2013-07-17 15:16:00,
2013-07-17 08:21:00,75.2,44.8,30.05,ESE,113,4.0,7.6,34,0.00,,,0.00,WUHU216HW,2013-07-17 15:21:00,
2013-07-17 08:26:00,75.2,44.8,30.05,SE,135,6.3,6.5,34,0.00,,,0.00,WUHU216HW,2013-07-17 15:26:00,
2013-07-17 08:31:00,75.6,44.4,30.06,SE,135,4.9,6.7,33,0.00,,,0.00,WUHU216HW,2013-07-17 15:31:00,
2013-07-17 08:36:00,76.0,44.6,30.05,SE,135,3.4,6.7,33,0.00,,,0.00,WUHU216HW,2013-07-17 15:36:00,
2013-07-17 08:41:00,76.1,44.1,30.06,East,90,5.4,6.7,32,0.00,,,0.00,WUHU216HW,2013-07-17 15:41:00,
2013-07-17 08:46:00,76.1,44.1,30.06,SE,135,3.1,6.9,32,0.00,,,0.00,WUHU216HW,2013-07-17 15:46:00,
2013-07-17 08:51:00,76.7,44.6,30.06,South,180,2.0,6.9,32,0.00,,,0.00,WUHU216HW,2013-07-17 15:51:00,
2013-07-17 08:56:00,76.1,43.3,30.06,SSE,158,3.4,6.3,31,0.00,,,0.00,WUHU216HW,2013-07-17 15:56:00,
2013-07-17 09:01:00,76.7,43.8,30.06,ESE,113,4.9,6.9,31,0.00,,,0.00,WUHU216HW,2013-07-17 16:01:00,
2013-07-17 09:06:00,76.9,43.2,30.06,SSE,158,4.7,6.9,30,0.00,,,0.00,WUHU216HW,2013-07-17 16:06:00,
2013-07-17 09:11:00,77.4,42.7,30.06,ESE,113,4.7,6.9,29,0.00,,,0.00,WUHU216HW,2013-07-17 16:11:00,
2013-07-17 09:16:00,77.4,41.6,30.06,SSE,158,6.7,7.2,28,0.00,,,0.00,WUHU216HW,2013-07-17 16:16:00,
2013-07-17 09:21:00,77.6,41.8,30.06,SE,135,4.7,7.2,28,0.00,,,0.00,WUHU216HW,2013-07-17 16:21:00,
2013-07-17 09:26:00,78.3,40.2,30.06,SE,135,6.3,6.7,26,0.00,,,0.00,WUHU216HW,2013-07-17 16:26:00,
2013-07-17 09:31:00,79.0,39.8,30.06,SSW,203,4.0,6.7,25,0.00,,,0.00,WUHU216HW,2013-07-17 16:31:00,
2013-07-17 09:36:00,79.6,38.2,30.05,SE,135,4.3,6.7,23,0.00,,,0.00,WUHU216HW,2013-07-17 16:36:00,
2013-07-17 09:41:00,79.9,38.5,30.05,SE,135,4.0,6.0,23,0.00,,,0.00,WUHU216HW,2013-07-17 16:41:00,
2013-07-17 09:46:00,80.3,38.8,30.05,SSE,158,1.8,6.0,23,0.00,,,0.00,WUHU216HW,2013-07-17 16:46:00,
2013-07-17 09:51:00,81.2,38.5,30.05,SE,135,2.5,6.3,22,0.00,,,0.00,WUHU216HW,2013-07-17 16:51:00,
2013-07-17 09:56:00,81.5,38.8,30.05,South,180,1.1,6.7,22,0.00,,,0.00,WUHU216HW,2013-07-17 16:56:00,
2013-07-17 10:01:00,81.4,37.6,30.05,South,180,5.8,6.7,21,0.00,,,0.00,WUHU216HW,2013-07-17 17:01:00,
2013-07-17 10:06:00,81.4,37.6,30.05,South,180,2.9,6.3,21,0.00,,,0.00,WUHU216HW,2013-07-17 17:06:00,
2013-07-17 10:11:00,81.9,38.1,30.05,ENE,68,3.4,6.3,21,0.00,,,0.00,WUHU216HW,2013-07-17 17:11:00,
2013-07-17 10:16:00,82.3,38.3,30.05,SSW,203,3.1,6.9,21,0.00,,,0.00,WUHU216HW,2013-07-17 17:16:00,
2013-07-17 10:21:00,82.1,38.2,30.05,SE,135,5.4,7.6,21,0.00,,,0.00,WUHU216HW,2013-07-17 17:21:00,
2013-07-17 10:26:00,82.4,38.5,30.05,SE,135,3.4,7.6,21,0.00,,,0.00,WUHU216HW,2013-07-17 17:26:00,
2013-07-17 10:31:00,83.0,36.2,30.05,SE,135,1.8,7.2,19,0.00,,,0.00,WUHU216HW,2013-07-17 17:31:00,
2013-07-17 10:36:00,83.5,36.6,30.06,WNW,293,3.4,7.2,19,0.00,,,0.00,WUHU216HW,2013-07-17 17:36:00,
2013-07-17 10:41:00,83.9,36.9,30.05,SE,135,6.3,6.3,19,0.00,,,0.00,WUHU216HW,2013-07-17 17:41:00,
2013-07-17 10:46:00,84.6,37.4,30.05,SE,135,1.1,7.6,19,0.00,,,0.00,WUHU216HW,2013-07-17 17:46:00,
2013-07-17 10:51:00,84.8,37.6,30.05,SW,225,7.8,8.5,19,0.00,,,0.00,WUHU216HW,2013-07-17 17:51:00,
2013-07-17 10:56:00,83.7,36.7,30.05,SW,225,1.1,8.5,19,0.00,,,0.00,WUHU216HW,2013-07-17 17:56:00,
2013-07-17 11:01:00,83.5,36.6,30.05,South,180,5.1,7.8,19,0.00,,,0.00,WUHU216HW,2013-07-17 18:01:00,
2013-07-17 11:06:00,83.5,36.6,30.05,SSW,203,1.3,7.4,19,0.00,,,0.00,WUHU216HW,2013-07-17 18:06:00,
2013-07-17 11:11:00,84.6,35.7,30.05,ESE,113,0.9,6.3,18,0.00,,,0.00,WUHU216HW,2013-07-17 18:11:00,
2013-07-17 11:16:00,85.5,34.7,30.05,SW,225,6.7,7.2,17,0.00,,,0.00,WUHU216HW,2013-07-17 18:16:00,
2013-07-17 11:21:00,85.0,36.0,30.05,SW,225,1.1,7.2,18,0.00,,,0.00,WUHU216HW,2013-07-17 18:21:00,
2013-07-17 11:26:00,85.3,34.7,30.05,WNW,293,2.5,6.7,17,0.00,,,0.00,WUHU216HW,2013-07-17 18:26:00,
2013-07-17 11:31:00,86.0,35.2,30.05,WSW,248,1.8,6.5,17,0.00,,,0.00,WUHU216HW,2013-07-17 18:31:00,
2013-07-17 11:36:00,85.9,35.0,30.05,South,180,2.2,7.8,17,0.00,,,0.00,WUHU216HW,2013-07-17 18:36:00,
2013-07-17 11:41:00,86.8,34.1,30.05,SE,135,3.6,7.8,16,0.00,,,0.00,WUHU216HW,2013-07-17 18:41:00,
2013-07-17 11:46:00,87.5,33.0,30.05,South,180,1.8,7.6,15,0.00,,,0.00,WUHU216HW,2013-07-17 18:46:00,
2013-07-17 11:51:00,87.3,32.9,30.05,SW,225,5.6,6.9,15,0.00,,,0.00,WUHU216HW,2013-07-17 18:51:00,
2013-07-17 11:56:00,86.8,34.1,30.05,SSW,203,5.4,6.0,16,0.00,,,0.00,WUHU216HW,2013-07-17 18:56:00,
2013-07-17 12:01:00,86.9,34.3,30.05,West,270,4.5,9.2,16,0.00,,,0.00,WUHU216HW,2013-07-17 19:01:00,
2013-07-17 12:06:00,86.9,34.3,30.05,WNW,293,4.7,9.2,16,0.00,,,0.00,WUHU216HW,2013-07-17 19:06:00,
2013-07-17 12:11:00,86.8,34.1,30.05,West,270,3.4,8.5,16,0.00,,,0.00,WUHU216HW,2013-07-17 19:11:00,
2013-07-17 12:16:00,86.8,34.1,30.05,SW,225,11.6,11.6,16,0.00,,,0.00,WUHU216HW,2013-07-17 19:16:00,
2013-07-17 12:21:00,86.8,34.1,30.05,SW,225,1.6,13.4,16,0.00,,,0.00,WUHU216HW,2013-07-17 19:21:00,
2013-07-17 12:26:00,87.1,34.4,30.05,NW,315,2.2,13.4,16,0.00,,,0.00,WUHU216HW,2013-07-17 19:26:00,
2013-07-17 12:31:00,87.8,35.0,30.05,WNW,293,3.8,7.4,16,0.00,,,0.00,WUHU216HW,2013-07-17 19:31:00,
2013-07-17 12:36:00,87.5,34.8,30.05,NNW,338,5.6,9.2,16,0.00,,,0.00,WUHU216HW,2013-07-17 19:36:00,
2013-07-17 12:41:00,87.8,35.0,30.05,WNW,293,5.4,9.2,16,0.00,,,0.00,WUHU216HW,2013-07-17 19:41:00,
2013-07-17 12:46:00,88.0,35.2,30.05,NNW,338,1.1,8.1,16,0.00,,,0.00,WUHU216HW,2013-07-17 19:46:00,
2013-07-17 12:51:00,88.7,35.7,30.05,West,270,4.0,8.1,16,0.00,,,0.00,WUHU216HW,2013-07-17 19:51:00,
2013-07-17 12:56:00,88.2,35.3,30.05,WSW,248,4.0,10.1,16,0.00,,,0.00,WUHU216HW,2013-07-17 19:56:00,
2013-07-17 13:01:00,88.6,35.6,30.05,SW,225,3.4,11.9,16,0.00,,,0.00,WUHU216HW,2013-07-17 20:01:00,
2013-07-17 13:06:00,88.9,35.8,30.05,SW,225,5.1,11.9,16,0.00,,,0.00,WUHU216HW,2013-07-17 20:06:00,
2013-07-17 13:11:00,88.4,35.5,30.05,West,270,5.4,10.5,16,0.00,,,0.00,WUHU216HW,2013-07-17 20:11:00,
2013-07-17 13:16:00,88.6,35.6,30.06,WSW,248,5.1,8.7,16,0.00,,,0.00,WUHU216HW,2013-07-17 20:16:00,
2013-07-17 13:21:00,88.9,35.8,30.05,North,0,2.5,7.2,16,0.00,,,0.00,WUHU216HW,2013-07-17 20:21:00,
2013-07-17 13:26:00,88.9,35.8,30.05,WSW,248,4.7,6.9,16,0.00,,,0.00,WUHU216HW,2013-07-17 20:26:00,
2013-07-17 13:31:00,88.9,35.8,30.05,NW,315,4.0,14.3,16,0.00,,,0.00,WUHU216HW,2013-07-17 20:31:00,
2013-07-17 13:36:00,88.6,35.6,30.05,West,270,4.9,15.4,16,0.00,,,0.00,WUHU216HW,2013-07-17 20:36:00,
2013-07-17 13:41:00,88.7,35.7,30.05,SW,225,4.0,15.4,16,0.00,,,0.00,WUHU216HW,2013-07-17 20:41:00,
2013-07-17 13:46:00,89.6,36.4,30.05,WNW,293,10.7,10.7,16,0.00,,,0.00,WUHU216HW,2013-07-17 20:46:00,
2013-07-17 13:51:00,89.6,36.4,30.05,WNW,293,6.9,10.7,16,0.00,,,0.00,WUHU216HW,2013-07-17 20:51:00,
2013-07-17 13:56:00,89.3,36.1,30.05,West,270,4.9,10.7,16,0.00,,,0.00,WUHU216HW,2013-07-17 20:56:00,
2013-07-17 14:01:00,89.6,34.7,30.05,WNW,293,3.4,9.8,15,0.00,,,0.00,WUHU216HW,2013-07-17 21:01:00,
2013-07-17 14:06:00,89.8,34.8,30.05,NNW,338,1.6,7.8,15,0.00,,,0.00,WUHU216HW,2013-07-17 21:06:00,
2013-07-17 14:11:00,90.2,35.1,30.05,North,0,3.1,7.4,15,0.00,,,0.00,WUHU216HW,2013-07-17 21:11:00,
2013-07-17 14:16:00,90.2,35.1,30.05,West,270,4.5,11.6,15,0.00,,,0.00,WUHU216HW,2013-07-17 21:16:00,
2013-07-17 14:21:00,90.9,35.6,30.05,WSW,248,3.8,11.6,15,0.00,,,0.00,WUHU216HW,2013-07-17 21:21:00,
2013-07-17 14:26:00,90.0,34.9,30.05,WNW,293,4.7,10.1,15,0.00,,,0.00,WUHU216HW,2013-07-17 21:26:00,
2013-07-17 14:31:00,89.8,34.8,30.05,West,270,8.9,11.2,15,0.00,,,0.00,WUHU216HW,2013-07-17 21:31:00,
2013-07-17 14:36:00,89.5,34.5,30.05,NNW,338,3.6,11.2,15,0.00,,,0.00,WUHU216HW,2013-07-17 21:36:00,
2013-07-17 14:41:00,90.4,35.2,30.05,WNW,293,5.1,8.9,15,0.00,,,0.00,WUHU216HW,2013-07-17 21:41:00,
2013-07-17 14:46:00,90.7,35.6,30.05,SE,135,3.4,8.5,15,0.00,,,0.00,WUHU216HW,2013-07-17 21:46:00,
2013-07-17 14:51:00,90.7,35.6,30.05,WNW,293,2.5,8.5,15,0.00,,,0.00,WUHU216HW,2013-07-17 21:51:00,
2013-07-17 14:56:00,91.4,36.1,30.05,South,180,6.5,6.5,15,0.00,,,0.00,WUHU216HW,2013-07-17 21:56:00,
2013-07-17 15:01:00,92.0,36.5,30.05,WSW,248,5.1,9.4,15,0.00,,,0.00,WUHU216HW,2013-07-17 22:01:00,
2013-07-17 15:06:00,90.9,35.6,30.05,West,270,7.6,15.7,15,0.00,,,0.00,WUHU216HW,2013-07-17 22:06:00,
2013-07-17 15:11:00,91.3,35.9,30.05,WNW,293,4.0,15.7,15,0.00,,,0.00,WUHU216HW,2013-07-17 22:11:00,
2013-07-17 15:16:00,91.3,35.9,30.05,SW,225,6.3,10.1,15,0.00,,,0.00,WUHU216HW,2013-07-17 22:16:00,
2013-07-17 15:21:00,91.3,35.9,30.05,North,0,3.4,8.7,15,0.00,,,0.00,WUHU216HW,2013-07-17 22:21:00,
2013-07-17 15:26:00,92.0,36.5,30.04,ESE,113,2.7,6.3,15,0.00,,,0.00,WUHU216HW,2013-07-17 22:26:00,
2013-07-17 15:31:00,92.9,37.2,30.05,WNW,293,5.4,7.8,15,0.00,,,0.00,WUHU216HW,2013-07-17 22:31:00,
2013-07-17 15:36:00,93.4,34.0,30.05,SSW,203,2.5,7.8,13,0.00,,,0.00,WUHU216HW,2013-07-17 22:36:00,
2013-07-17 15:41:00,92.9,37.2,30.05,WSW,248,5.4,10.5,15,0.00,,,0.00,WUHU216HW,2013-07-17 22:41:00,
2013-07-17 15:46:00,91.8,36.4,30.05,WNW,293,1.8,12.3,15,0.00,,,0.00,WUHU216HW,2013-07-17 22:46:00,
2013-07-17 15:51:00,91.6,36.3,30.05,West,270,4.0,12.3,15,0.00,,,0.00,WUHU216HW,2013-07-17 22:51:00,
2013-07-17 15:56:00,91.4,36.1,30.05,WSW,248,8.1,10.3,15,0.00,,,0.00,WUHU216HW,2013-07-17 22:56:00,
2013-07-17 16:01:00,91.8,36.4,30.05,SW,225,1.8,10.3,15,0.00,,,0.00,WUHU216HW,2013-07-17 23:01:00,
2013-07-17 16:06:00,92.0,36.5,30.05,WSW,248,4.0,8.5,15,0.00,,,0.00,WUHU216HW,2013-07-17 23:06:00,
2013-07-17 16:11:00,92.2,38.3,30.05,NW,315,5.1,7.6,16,0.00,,,0.00,WUHU216HW,2013-07-17 23:11:00,
2013-07-17 16:16:00,92.9,39.0,30.04,NNW,338,3.8,9.6,16,0.00,,,0.00,WUHU216HW,2013-07-17 23:16:00,
2013-07-17 16:21:00,94.3,38.4,30.04,NNW,338,3.4,9.6,15,0.00,,,0.00,WUHU216HW,2013-07-17 23:21:00,
2013-07-17 16:26:00,95.8,35.9,30.04,WNW,293,4.3,9.2,13,0.00,,,0.00,WUHU216HW,2013-07-17 23:26:00,
2013-07-17 16:31:00,96.3,36.3,30.04,NE,45,2.9,7.8,13,0.00,,,0.00,WUHU216HW,2013-07-17 23:31:00,
2013-07-17 16:36:00,95.8,35.9,30.04,West,270,3.6,8.1,13,0.00,,,0.00,WUHU216HW,2013-07-17 23:36:00,
2013-07-17 16:41:00,94.7,38.6,30.04,WSW,248,1.1,11.4,15,0.00,,,0.00,WUHU216HW,2013-07-17 23:41:00,
2013-07-17 16:46:00,95.9,36.0,30.04,WSW,248,1.8,11.4,13,0.00,,,0.00,WUHU216HW,2013-07-17 23:46:00,
2013-07-17 16:51:00,96.5,36.5,30.04,WNW,293,3.4,8.3,13,0.00,,,0.00,WUHU216HW,2013-07-17 23:51:00,
2013-07-17 16:56:00,94.7,35.1,30.03,West,270,8.5,13.4,13,0.00,,,0.00,WUHU216HW,2013-07-17 23:56:00,
2013-07-17 17:01:00,95.4,35.7,30.03,West,270,6.0,13.4,13,0.00,,,0.00,WUHU216HW,2013-07-18 00:01:00,
2013-07-17 17:06:00,96.1,39.8,30.03,WNW,293,6.3,8.5,15,0.00,,,0.00,WUHU216HW,2013-07-18 00:06:00,
2013-07-17 17:11:00,96.1,38.0,30.03,West,270,6.3,9.4,14,0.00,,,0.00,WUHU216HW,2013-07-18 00:11:00,
2013-07-17 17:16:00,95.8,39.4,30.03,West,270,3.4,9.4,15,0.00,,,0.00,WUHU216HW,2013-07-18 00:16:00,
2013-07-17 17:21:00,96.3,41.7,30.03,NNW,338,7.2,9.8,16,0.00,,,0.00,WUHU216HW,2013-07-18 00:21:00,
2013-07-17 17:26:00,96.3,41.7,30.03,NNW,338,8.1,10.3,16,0.00,,,0.00,WUHU216HW,2013-07-18 00:26:00,
2013-07-17 17:31:00,95.0,42.4,30.05,North,0,10.3,10.3,17,0.00,,,0.00,WUHU216HW,2013-07-18 00:31:00,
2013-07-17 17:36:00,94.7,42.1,30.06,NNW,338,8.7,10.3,17,0.00,,,0.00,WUHU216HW,2013-07-18 00:36:00,
2013-07-17 17:41:00,94.0,41.6,30.06,WSW,248,1.6,10.7,17,0.00,,,0.00,WUHU216HW,2013-07-18 00:41:00,
2013-07-17 17:46:00,93.2,42.8,30.06,WNW,293,5.1,13.9,18,0.00,,,0.00,WUHU216HW,2013-07-18 00:46:00,
2013-07-17 17:51:00,93.4,41.1,30.05,WNW,293,7.2,13.9,17,0.00,,,0.00,WUHU216HW,2013-07-18 00:51:00,
2013-07-17 17:56:00,92.3,42.0,30.06,WNW,293,5.4,11.6,18,0.00,,,0.00,WUHU216HW,2013-07-18 00:56:00,
2013-07-17 18:01:00,92.7,42.3,30.05,NW,315,4.3,11.6,18,0.00,,,0.00,WUHU216HW,2013-07-18 01:01:00,
2013-07-17 18:06:00,92.7,42.3,30.06,SW,225,9.6,9.6,18,0.00,,,0.00,WUHU216HW,2013-07-18 01:06:00,
2013-07-17 18:11:00,92.2,41.9,30.06,WNW,293,4.3,9.6,18,0.00,,,0.00,WUHU216HW,2013-07-18 01:11:00,
2013-07-17 18:16:00,93.1,42.6,30.05,West,270,4.7,7.6,18,0.00,,,0.00,WUHU216HW,2013-07-18 01:16:00,
2013-07-17 18:21:00,91.8,43.4,30.05,West,270,6.0,8.5,19,0.00,,,0.00,WUHU216HW,2013-07-18 01:21:00,
2013-07-17 18:26:00,90.4,42.2,30.05,SSW,203,5.4,8.5,19,0.00,,,0.00,WUHU216HW,2013-07-18 01:26:00,
2013-07-17 18:31:00,88.9,43.9,30.05,SW,225,5.4,10.3,21,0.00,,,0.00,WUHU216HW,2013-07-18 01:31:00,
2013-07-17 18:36:00,88.4,43.5,30.06,WSW,248,8.3,10.3,21,0.00,,,0.00,WUHU216HW,2013-07-18 01:36:00,
2013-07-17 18:41:00,87.8,43.0,30.05,West,270,6.5,8.7,21,0.00,,,0.00,WUHU216HW,2013-07-18 01:41:00,
2013-07-17 18:46:00,88.0,43.1,30.06,West,270,6.9,8.7,21,0.00,,,0.00,WUHU216HW,2013-07-18 01:46:00,
2013-07-17 18:51:00,88.2,43.3,30.06,WSW,248,11.4,11.4,21,0.00,,,0.00,WUHU216HW,2013-07-18 01:51:00,
2013-07-17 18:56:00,88.2,42.2,30.06,SW,225,6.3,11.4,20,0.00,,,0.00,WUHU216HW,2013-07-18 01:56:00,
2013-07-17 19:01:00,87.8,43.0,30.06,SW,225,10.5,10.5,21,0.00,,,0.00,WUHU216HW,2013-07-18 02:01:00,
2013-07-17 19:06:00,87.8,40.2,30.06,WSW,248,7.6,10.5,19,0.00,,,0.00,WUHU216HW,2013-07-18 02:06:00,
2013-07-17 19:11:00,86.8,41.0,30.06,WSW,248,9.8,13.9,20,0.00,,,0.00,WUHU216HW,2013-07-18 02:11:00,
2013-07-17 19:16:00,86.6,41.9,30.06,WSW,248,8.9,13.9,21,0.00,,,0.00,WUHU216HW,2013-07-18 02:16:00,
2013-07-17 19:21:00,85.5,41.0,30.06,SW,225,12.1,12.1,21,0.00,,,0.00,WUHU216HW,2013-07-18 02:21:00,
2013-07-17 19:26:00,84.8,41.5,30.06,WSW,248,9.2,12.1,22,0.00,,,0.00,WUHU216HW,2013-07-18 02:26:00,
2013-07-17 19:31:00,84.6,41.3,30.07,WNW,293,5.6,10.5,22,0.00,,,0.00,WUHU216HW,2013-07-18 02:31:00,
2013-07-17 19:36:00,84.1,40.9,30.06,WSW,248,4.7,11.9,22,0.00,,,0.00,WUHU216HW,2013-07-18 02:36:00,
2013-07-17 19:41:00,84.2,41.1,30.06,WNW,293,3.4,11.9,22,0.00,,,0.00,WUHU216HW,2013-07-18 02:41:00,
2013-07-17 19:46:00,83.9,40.7,30.07,WSW,248,3.8,9.8,22,0.00,,,0.00,WUHU216HW,2013-07-18 02:46:00,
2013-07-17 19:51:00,83.5,40.4,30.07,WSW,248,4.7,9.8,22,0.00,,,0.00,WUHU216HW,2013-07-18 02:51:00,
2013-07-17 19:56:00,83.2,40.2,30.07,SW,225,3.4,9.2,22,0.00,,,0.00,WUHU216HW,2013-07-18 02:56:00,
2013-07-17 20:01:00,83.0,40.0,30.07,West,270,8.7,8.7,22,0.00,,,0.00,WUHU216HW,2013-07-18 03:01:00,
2013-07-17 20:06:00,82.4,39.5,30.07,WSW,248,3.6,8.7,22,0.00,,,0.00,WUHU216HW,2013-07-18 03:06:00,
2013-07-17 20:11:00,82.1,40.3,30.07,WNW,293,1.8,7.6,23,0.00,,,0.00,WUHU216HW,2013-07-18 03:11:00,
2013-07-17 20:16:00,81.9,40.1,30.08,West,270,2.9,7.2,23,0.00,,,0.00,WUHU216HW,2013-07-18 03:16:00,
2013-07-17 20:21:00,81.7,40.0,30.08,West,270,5.6,6.5,23,0.00,,,0.00,WUHU216HW,2013-07-18 03:21:00,
2013-07-17 20:26:00,81.0,39.4,30.08,WSW,248,3.1,7.4,23,0.00,,,0.00,WUHU216HW,2013-07-18 03:26:00,
2013-07-17 20:31:00,80.5,39.0,30.08,SW,225,4.7,7.4,23,0.00,,,0.00,WUHU216HW,2013-07-18 03:31:00,
2013-07-17 20:36:00,79.9,39.5,30.08,WSW,248,2.9,5.6,24,0.00,,,0.00,WUHU216HW,2013-07-18 03:36:00,
2013-07-17 20:41:00,79.4,39.1,30.08,WSW,248,6.5,6.5,24,0.00,,,0.00,WUHU216HW,2013-07-18 03:41:00,
2013-07-17 20:46:00,78.8,39.6,30.08,WSW,248,2.5,7.8,25,0.00,,,0.00,WUHU216HW,2013-07-18 03:46:00,
2013-07-17 20:51:00,78.7,39.4,30.08,WNW,293,2.5,7.8,25,0.00,,,0.00,WUHU216HW,2013-07-18 03:51:00,
2013-07-17 20:56:00,78.5,38.3,30.09,WNW,293,1.1,3.6,24,0.00,,,0.00,WUHU216HW,2013-07-18 03:56:00,
2013-07-17 21:01:00,78.3,39.2,30.09,WNW,293,0.4,2.5,25,0.00,,,0.00,WUHU216HW,2013-07-18 04:01:00,
2013-07-17 21:06:00,77.4,38.4,30.09,WNW,293,1.6,1.6,25,0.00,,,0.00,WUHU216HW,2013-07-18 04:06:00,
2013-07-17 21:11:00,76.7,38.9,30.09,NE,45,1.8,1.8,26,0.00,,,0.00,WUHU216HW,2013-07-18 04:11:00,
2013-07-17 21:16:00,75.8,38.2,30.09,NE,45,1.6,1.8,26,0.00,,,0.00,WUHU216HW,2013-07-18 04:16:00,
2013-07-17 21:21:00,75.4,38.9,30.10,ENE,68,3.1,3.1,27,0.00,,,0.00,WUHU216HW,2013-07-18 04:21:00,
2013-07-17 21:26:00,75.6,36.9,30.10,ENE,68,2.5,4.7,25,0.00,,,0.00,WUHU216HW,2013-07-18 04:26:00,
2013-07-17 21:31:00,75.6,38.0,30.10,NNE,23,3.4,4.7,26,0.00,,,0.00,WUHU216HW,2013-07-18 04:31:00,
2013-07-17 21:36:00,75.2,40.8,30.10,NNW,338,5.4,5.4,29,0.00,,,0.00,WUHU216HW,2013-07-18 04:36:00,
2013-07-17 21:41:00,75.1,42.4,30.11,NNE,23,4.0,5.4,31,0.00,,,0.00,WUHU216HW,2013-07-18 04:41:00,
2013-07-17 21:46:00,74.9,43.8,30.11,NNE,23,4.7,6.3,33,0.00,,,0.00,WUHU216HW,2013-07-18 04:46:00,
2013-07-17 21:51:00,74.5,44.9,30.11,NNE,23,4.7,6.3,35,0.00,,,0.00,WUHU216HW,2013-07-18 04:51:00,
2013-07-17 21:56:00,74.5,46.5,30.11,North,0,3.6,6.3,37,0.00,,,0.00,WUHU216HW,2013-07-18 04:56:00,
2013-07-17 22:01:00,74.3,46.3,30.11,NNE,23,4.7,7.8,37,0.00,,,0.00,WUHU216HW,2013-07-18 05:01:00,
2013-07-17 22:06:00,74.2,46.8,30.11,NE,45,5.6,7.8,38,0.00,,,0.00,WUHU216HW,2013-07-18 05:06:00,
2013-07-17 22:11:00,73.8,46.5,30.12,North,0,4.7,5.6,38,0.00,,,0.00,WUHU216HW,2013-07-18 05:11:00,
2013-07-17 22:16:00,73.6,46.4,30.12,North,0,4.0,5.4,38,0.00,,,0.00,WUHU216HW,2013-07-18 05:16:00,
2013-07-17 22:26:00,72.7,47.1,30.12,NNE,23,4.9,8.5,40,0.00,,,0.00,WUHU216HW,2013-07-18 05:26:00,
2013-07-17 22:31:00,72.4,47.4,30.12,North,0,6.0,7.2,41,0.00,,,0.00,WUHU216HW,2013-07-18 05:31:00,
2013-07-17 22:36:00,72.2,47.2,30.12,NNE,23,5.1,6.0,41,0.00,,,0.00,WUHU216HW,2013-07-18 05:36:00,
2013-07-17 22:45:00,71.6,47.3,30.12,North,0,4.0,7.8,42,0.00,,,0.00,WUHU216HW,2013-07-18 05:45:00,
2013-07-17 22:50:00,71.3,47.5,30.12,North,0,6.7,6.9,43,0.00,,,0.00,WUHU216HW,2013-07-18 05:50:00,
2013-07-17 22:55:00,70.9,47.8,30.12,North,0,5.4,7.2,44,0.00,,,0.00,WUHU216HW,2013-07-18 05:55:00,
2013-07-17 23:05:00,70.6,47.5,30.12,NNE,23,6.0,6.7,44,0.00,,,0.00,WUHU216HW,2013-07-18 06:05:00,
2013-07-17 23:11:00,70.6,47.5,30.12,NNE,23,4.0,6.5,44,0.00,,,0.00,WUHU216HW,2013-07-18 06:11:00,
2013-07-17 23:21:00,70.6,48.1,30.13,NNE,23,5.8,5.8,45,0.00,,,0.00,WUHU216HW,2013-07-18 06:21:00,
2013-07-17 23:26:00,70.4,47.9,30.13,NNE,23,4.0,6.3,45,0.00,,,0.00,WUHU216HW,2013-07-18 06:26:00,
2013-07-17 23:36:00,70.2,47.8,30.14,NNE,23,3.4,5.6,45,0.00,,,0.00,WUHU216HW,2013-07-18 06:36:00,
2013-07-17 23:46:00,69.8,47.4,30.14,North,0,3.8,5.4,45,0.00,,,0.00,WUHU216HW,2013-07-18 06:46:00,
2013-07-17 23:51:00,69.8,47.4,30.14,NNE,23,3.4,5.6,45,0.00,,,0.00,WUHU216HW,2013-07-18 06:51:00,